This is the latest recevied weather packets stored in our database for station/object K4MUW-4. If no packets are shown the sender has not sent any weather packets the latest 10 day(s).
| Time | Temp. | Humidity | Pressure | Rain* | Wind** | Luminosity | Snow |
|---|---|---|---|---|---|---|---|
| 1777913802 | 21.67° C | 35% | 1014 hPa | 0 mm | 1.79 m/s, 179° | - | - |
| 1777913501 | 21.67° C | 37% | 1014 hPa | 0 mm | 0 m/s | - | - |
| 1777913201 | 21.67° C | 37% | 1014 hPa | 0 mm | 0 m/s | - | - |
| 1777912901 | 21.11° C | 36% | 1014 hPa | 0 mm | 1.79 m/s, 205° | - | - |
| 1777912600 | 21.11° C | 38% | 1014 hPa | 0 mm | 1.34 m/s, 125° | - | - |
| 1777912300 | 21.11° C | 39% | 1014 hPa | 0 mm | 1.79 m/s, 201° | - | - |
| 1777911999 | 20.56° C | 40% | 1014 hPa | 0 mm | 1.34 m/s, 253° | - | - |
| 1777911699 | 20.56° C | 39% | 1014 hPa | 0 mm | 1.79 m/s, 250° | - | - |
| 1777911389 | 20.56° C | 41% | 1014 hPa | 0 mm | 0 m/s | - | - |
| 1777911089 | 20° C | 42% | 1014 hPa | 0 mm | 1.79 m/s, 196° | - | - |
| 1777910789 | 20° C | 40% | 1014 hPa | 0 mm | 1.34 m/s, 235° | - | - |
| 1777910488 | 20° C | 43% | 1015 hPa | 0 mm | 1.79 m/s, 190° | - | - |
| 1777910188 | 20° C | 43% | 1015 hPa | 0 mm | 1.34 m/s, 202° | - | - |
| 1777909887 | 19.44° C | 43% | 1015 hPa | 0 mm | 2.24 m/s, 160° | - | - |
| 1777909587 | 19.44° C | 43% | 1015 hPa | 0 mm | 1.79 m/s, 188° | - | - |
| 1777909287 | 18.89° C | 45% | 1015 hPa | 0 mm | 1.79 m/s, 191° | - | - |
| 1777908986 | 18.89° C | 47% | 1015 hPa | 0 mm | 1.79 m/s, 177° | - | - |
| 1777908681 | 18.89° C | 47% | 1014 hPa | 0 mm | 1.34 m/s, 188° | - | - |
| 1777908381 | 18.33° C | 46% | 1014 hPa | 0 mm | 1.79 m/s, 182° | - | - |
| 1777908080 | 18.33° C | 46% | 1014 hPa | 0 mm | 2.68 m/s, 202° | - | - |
| 1777907780 | 17.78° C | 45% | 1014 hPa | 0 mm | 1.34 m/s, 205° | - | - |
| 1777907479 | 17.78° C | 49% | 1014 hPa | 0 mm | 2.24 m/s, 186° | - | - |
| 1777907179 | 17.78° C | 52% | 1014 hPa | 0 mm | 1.34 m/s, 208° | - | - |
| 1777906879 | 17.22° C | 54% | 1015 hPa | 0 mm | 3.13 m/s, 185° | - | - |
| 1777906578 | 17.22° C | 55% | 1015 hPa | 0 mm | 1.79 m/s, 203° | - | - |
* Rain latest hour (hover to see other rain measurements)
** Current wind speed in m/s (hover to see current wind gust speed)